Total_Precipitation_Accumulation
0.43 0.44 0.57 0.61 0.53 0.54 0.64 0.75 0.91 0.84 0.78 0.65 0.61 0.66 0.69 0.67 0.62 0.59 0.52 0.45 0.47 0.50 0.56 0.60 0.65 0.70 0.73 0.71 0.77 0.86 1.00 1.13 1.21 1.29 1.36 1.27 1.14 1.08 1.14 1.12 1.11 1.24 1.38 1.50
0.32 0.31 0.41 0.48 0.47 0.48 0.50 0.55 0.67 0.72 0.70 0.56 0.50 0.49 0.52 0.50 0.43 0.44 0.44 0.39 0.37 0.41 0.45 0.48 0.51 0.55 0.58 0.65 0.83 0.87 0.93 1.01 1.21 1.31 1.25 1.19 1.08 1.04 1.04 1.02 1.01 1.09 1.22 1.41
0.50 0.37 0.44 0.67 0.63 0.62 0.65 0.59 0.62 0.58 0.48 0.32 0.31 0.33 0.38 0.39 0.37 0.40 0.39 0.34 0.32 0.34 0.37 0.38 0.43 0.52 0.58 0.66 0.78 0.81 0.85 1.00 1.20 1.23 1.15 1.07 1.10 1.12 1.05 1.02 1.05 1.10 1.14 1.15
0.61 0.59 0.92 1.00 0.70 0.67 0.65 0.45 0.33 0.28 0.24 0.21 0.28 0.27 0.25 0.27 0.30 0.33 0.32 0.28 0.27 0.28 0.30 0.32 0.37 0.44 0.52 0.59 0.64 0.70 0.76 0.90 1.08 1.11 1.08 1.11 1.10 1.07 0.99 0.93 0.93 0.96 0.98 1.03
0.74 0.74 0.88 0.77 0.51 0.45 0.48 0.37 0.20 0.19 0.20 0.19 0.22 0.21 0.18 0.18 0.19 0.21 0.22 0.20 0.19 0.21 0.25 0.27 0.27 0.32 0.39 0.44 0.49 0.54 0.64 0.78 0.88 0.89 0.95 0.99 0.96 0.98 0.93 0.84 0.84 0.85 0.88 0.95
0.90 1.01 0.95 0.55 0.33 0.30 0.41 0.54 0.24 0.18 0.18 0.16 0.16 0.22 0.18 0.13 0.12 0.13 0.14 0.13 0.13 0.16 0.20 0.24 0.23 0.25 0.30 0.37 0.41 0.45 0.57 0.70 0.79 0.80 0.82 0.85 0.91 0.93 0.94 0.88 0.83 0.83 0.87 0.88
0.87 1.08 0.88 0.43 0.30 0.33 0.56 0.65 0.33 0.23 0.20 0.16 0.15 0.15 0.13 0.11 0.10 0.11 0.11 0.11 0.12 0.14 0.20 0.23 0.23 0.23 0.23 0.29 0.33 0.39 0.46 0.58 0.67 0.69 0.75 0.84 0.94 0.96 1.00 0.96 0.90 0.88 0.91 0.93
0.80 1.03 0.94 0.45 0.40 0.52 0.56 0.42 0.33 0.27 0.23 0.18 0.13 0.10 0.08 0.08 0.09 0.10 0.10 0.11 0.11 0.14 0.20 0.24 0.25 0.23 0.22 0.25 0.30 0.34 0.36 0.44 0.58 0.68 0.75 0.82 0.93 0.98 0.97 0.98 0.99 1.01 0.98 1.00
0.86 0.97 0.67 0.46 0.49 0.48 0.42 0.38 0.28 0.20 0.18 0.17 0.14 0.11 0.09 0.08 0.09 0.10 0.10 0.11 0.11 0.14 0.19 0.18 0.21 0.24 0.25 0.28 0.29 0.28 0.30 0.35 0.43 0.51 0.56 0.65 0.76 0.88 0.94 0.93 0.94 0.95 1.01 1.09
0.69 0.60 0.39 0.37 0.38 0.34 0.32 0.29 0.22 0.18 0.15 0.13 0.12 0.11 0.11 0.10 0.10 0.11 0.11 0.11 0.13 0.16 0.18 0.18 0.20 0.23 0.25 0.27 0.28 0.29 0.32 0.34 0.36 0.39 0.41 0.48 0.63 0.71 0.75 0.80 0.87 0.96 1.03 1.14
0.66 0.59 0.42 0.34 0.33 0.30 0.28 0.21 0.18 0.20 0.19 0.17 0.15 0.12 0.10 0.09 0.09 0.10 0.11 0.11 0.13 0.15 0.18 0.20 0.20 0.20 0.23 0.23 0.25 0.28 0.32 0.33 0.34 0.36 0.39 0.43 0.51 0.65 0.73 0.78 0.85 0.92 0.99 1.14
0.71 0.60 0.55 0.39 0.31 0.26 0.24 0.20 0.17 0.18 0.19 0.21 0.22 0.20 0.13 0.10 0.09 0.10 0.11 0.12 0.14 0.16 0.17 0.20 0.21 0.19 0.22 0.23 0.25 0.31 0.35 0.35 0.36 0.39 0.42 0.45 0.50 0.60 0.68 0.70 0.72 0.75 0.82 0.89
0.47 0.43 0.39 0.30 0.24 0.21 0.20 0.17 0.15 0.14 0.14 0.15 0.18 0.22 0.22 0.18 0.15 0.12 0.13 0.14 0.17 0.19 0.19 0.19 0.19 0.19 0.21 0.24 0.30 0.41 0.45 0.43 0.42 0.41 0.47 0.53 0.55 0.57 0.63 0.65 0.67 0.69 0.71 0.78
0.33 0.31 0.32 0.28 0.22 0.19 0.18 0.15 0.13 0.14 0.16 0.16 0.16 0.18 0.21 0.22 0.20 0.17 0.17 0.18 0.20 0.20 0.21 0.19 0.19 0.21 0.24 0.26 0.30 0.34 0.37 0.40 0.44 0.48 0.48 0.52 0.59 0.66 0.72 0.77 0.73 0.66 0.67 0.74
0.30 0.29 0.30 0.27 0.21 0.19 0.20 0.22 0.21 0.20 0.19 0.17 0.16 0.18 0.20 0.19 0.18 0.18 0.19 0.18 0.17 0.19 0.19 0.18 0.18 0.20 0.24 0.26 0.26 0.30 0.34 0.40 0.50 0.55 0.54 0.54 0.64 0.76 0.81 0.82 0.79 0.71 0.63 0.64
0.27 0.25 0.25 0.25 0.23 0.18 0.19 0.22 0.23 0.23 0.20 0.18 0.18 0.18 0.19 0.20 0.22 0.23 0.23 0.21 0.20 0.20 0.20 0.19 0.19 0.20 0.22 0.24 0.28 0.31 0.37 0.46 0.55 0.61 0.57 0.58 0.63 0.65 0.67 0.72 0.72 0.69 0.66 0.69
0.29 0.31 0.32 0.30 0.26 0.22 0.20 0.21 0.22 0.23 0.21 0.20 0.20 0.23 0.24 0.26 0.28 0.26 0.27 0.28 0.27 0.27 0.27 0.27 0.26 0.25 0.27 0.30 0.33 0.39 0.46 0.47 0.51 0.57 0.57 0.54 0.55 0.54 0.58 0.62 0.61 0.60 0.61 0.66
0.28 0.31 0.35 0.39 0.38 0.30 0.24 0.24 0.26 0.29 0.28 0.23 0.21 0.25 0.28 0.30 0.32 0.31 0.31 0.29 0.28 0.28 0.29 0.32 0.33 0.32 0.32 0.36 0.40 0.43 0.48 0.49 0.48 0.55 0.59 0.54 0.51 0.53 0.58 0.60 0.60 0.58 0.57 0.58
0.27 0.28 0.30 0.35 0.38 0.38 0.33 0.31 0.31 0.32 0.29 0.26 0.26 0.30 0.34 0.33 0.31 0.30 0.30 0.33 0.36 0.36 0.34 0.35 0.38 0.35 0.35 0.40 0.47 0.48 0.49 0.49 0.50 0.54 0.56 0.56 0.54 0.56 0.60 0.64 0.62 0.59 0.58 0.58
0.28 0.28 0.30 0.32 0.33 0.35 0.36 0.35 0.36 0.38 0.34 0.32 0.33 0.37 0.39 0.36 0.33 0.33 0.35 0.37 0.39 0.39 0.39 0.42 0.40 0.37 0.37 0.41 0.47 0.48 0.51 0.53 0.56 0.59 0.60 0.63 0.66 0.67 0.65 0.65 0.66 0.64 0.60 0.59
0.26 0.28 0.31 0.31 0.30 0.31 0.35 0.36 0.37 0.41 0.41 0.38 0.37 0.38 0.39 0.36 0.36 0.39 0.43 0.44 0.41 0.39 0.42 0.46 0.44 0.43 0.43 0.47 0.49 0.46 0.50 0.52 0.55 0.60 0.62 0.65 0.70 0.70 0.68 0.67 0.69 0.72 0.74 0.70
0.24 0.26 0.28 0.28 0.31 0.33 0.37 0.38 0.36 0.34 0.36 0.38 0.37 0.36 0.37 0.40 0.41 0.41 0.40 0.43 0.42 0.44 0.46 0.47 0.48 0.54 0.57 0.55 0.47 0.46 0.49 0.52 0.57 0.65 0.67 0.67 0.70 0.72 0.70 0.69 0.71 0.74 0.77 0.80
0.20 0.23 0.28 0.30 0.32 0.35 0.37 0.39 0.40 0.36 0.34 0.38 0.43 0.45 0.47 0.49 0.48 0.47 0.48 0.45 0.48 0.50 0.42 0.44 0.57 0.68 0.71 0.58 0.52 0.50 0.49 0.54 0.60 0.68 0.72 0.74 0.76 0.78 0.79 0.78 0.79 0.81 0.84 0.92
0.22 0.24 0.28 0.32 0.31 0.33 0.40 0.44 0.44 0.40 0.37 0.40 0.47 0.51 0.53 0.54 0.51 0.48 0.52 0.56 0.60 0.58 0.45 0.47 0.57 0.66 0.68 0.60 0.60 0.59 0.58 0.59 0.64 0.68 0.71 0.76 0.82 0.86 0.87 0.89 0.92 0.91 0.90 0.94
0.24 0.26 0.29 0.32 0.34 0.37 0.40 0.40 0.40 0.41 0.42 0.44 0.45 0.47 0.50 0.52 0.54 0.53 0.51 0.53 0.60 0.62 0.55 0.56 0.63 0.67 0.61 0.59 0.63 0.66 0.66 0.67 0.71 0.76 0.79 0.84 0.88 0.92 0.93 0.95 0.98 1.02 1.04 1.06
0.28 0.30 0.31 0.34 0.36 0.38 0.39 0.39 0.40 0.39 0.40 0.43 0.45 0.45 0.47 0.48 0.49 0.50 0.49 0.50 0.54 0.59 0.58 0.59 0.61 0.63 0.59 0.58 0.60 0.62 0.62 0.65 0.70 0.75 0.77 0.83 0.90 0.95 0.96 0.97 0.98 1.03 1.08 1.13
0.31 0.31 0.32 0.32 0.33 0.34 0.36 0.38 0.40 0.43 0.44 0.44 0.47 0.46 0.46 0.48 0.49 0.48 0.48 0.50 0.53 0.55 0.58 0.63 0.65 0.65 0.64 0.67 0.68 0.64 0.63 0.64 0.64 0.67 0.73 0.79 0.87 0.96 1.00 1.03 1.06 1.11 1.15 1.19